Regional Weather Roundup
Issued by NWS

Current Version | Previous Version | Text Only | Print | Product List | Glossary On
Versions: 1 2 3 4 5 6 7 8 9 10 11 12 13 14 15 16 17 18 19 20 21 22 23 24 25 26 27 28 29 30 31 32 33 34 35 36 37 38 39 40 41 42 43 44 45 46 47 48 49 50
000
ASUS45 KPSR 270710
RWRAZ

ARIZONA HOURLY REGIONAL WEATHER ROUNDUP
NATIONAL WEATHER SERVICE PHOENIX AZ
1200 AM MST WED MAY 27 2015

NOTE: FAIR INDICATES FEW OR NO CLOUDS BELOW 12,000 FEET WITH NO
SIGNIFICANT WEATHER AND/OR OBSTRUCTIONS TO VISIBILITY.

AZZ001>003-036-270800-
NORTHWEST ARIZONA

CITY           SKY/WX    TMP DP  RH WIND       PRES   REMARKS
BULLHEAD CITY  MOCLDY    81  23  12 N3        29.83S
KINGMAN        PTCLDY    67  25  20 S12       29.99S
$$

AZZ004>008-015-016-018-270800-
NORTH CENTRAL ARIZONA

CITY           SKY/WX    TMP DP  RH WIND       PRES   REMARKS
GRAND CANYON   PTCLDY    43  36  76 CALM      30.18S
WILLIAMS       CLEAR     46  32  57 SE7       30.25S
PRESCOTT       MOCLDY    58  31  35 SW8       30.10S
FLAGSTAFF      PTCLDY    47  33  58 CALM      30.20F
PAYSON         PTCLDY    57  32  38 CALM      30.12S
PAGE           CLEAR     65  45  48 SW3       30.04R
$$

AZZ009>014-017-270800-
NORTHEAST ARIZONA

CITY           SKY/WX    TMP DP  RH WIND       PRES   REMARKS
WINSLOW        PTCLDY    52  32  46 E6        30.09R
SAINT JOHNS    PTCLDY    57  28  33 SW8       30.13S
WINDOW ROCK    PTCLDY    54  34  46 S7        30.18S
SHOW LOW       PTCLDY    48  28  46 SE7       30.18S
$$

AZZ023-270800-
GREATER PHOENIX AREA

CITY           SKY/WX    TMP DP  RH WIND       PRES   REMARKS
PHOENIX        MOCLDY    83  32  16 W10       29.86S
BUCKEYE          N/A     73  36  25 CALM      29.88S
LUKE AFB       MOCLDY    79  38  23 SW8       29.86S
DEER VALLEY    MOCLDY    78  36  21 W3        29.89R
SCOTTSDALE     MOCLDY    80  36  20 CALM      29.91R
MESA-GATEWAY   PTCLDY    75  41  29 CALM      29.90S
$$

AZZ027-028-270800-
SOUTHWEST MARICOPA COUNTY AND PINAL COUNTY

CITY           SKY/WX    TMP DP  RH WIND       PRES   REMARKS
CASA GRANDE    PTCLDY    75  25  15 W8        29.88S
GILA BEND      FAIR      75  35  23 W2        29.87R
$$

AZZ503-504-507>509-270800-
SOUTHEAST ARIZONA

CITY           SKY/WX    TMP DP  RH WIND       PRES   REMARKS
TUCSON         CLEAR     73  34  23 CALM      30.00R
DAVIS-MONTHAN  CLEAR     71  34  25 SW7       29.98S
NOGALES        CLEAR     65  28  24 CALM      30.05F
SIERRA VISTA   CLEAR     65  23  20 NE3       30.10R
DOUGLAS        CLEAR     59  24  26 E6        30.06S
SAFFORD        CLEAR     67  32  27 NW5       29.95S
$$

AZZ020-021-025-026-031-270800-
SOUTHWEST ARIZONA

CITY           SKY/WX    TMP DP  RH WIND       PRES   REMARKS
YUMA           MOCLDY    77  41  27 SE7       29.84S
$$

CAZ031-033-041-043-047-048-061-270800-
SOUTHERN CALIFORNIA

CITY           SKY/WX    TMP DP  RH WIND       PRES   REMARKS
DOWNTOWN L.A.  CLOUDY    60  54  80 CALM      30.00S
L.A. AIRPORT   MOCLDY    58  54  86 CALM      30.01S
SAN DIEGO      CLOUDY    63  53  70 W3        30.01S
BURBANK        CLOUDY    57  52  83 S5        29.99S
ONTARIO        CLOUDY    59  53  80 W7        29.99S HAZE
RIVERSIDE      PTCLDY    59  53  80 W3        29.99S
PALM SPRINGS   CLEAR     74  53  48 NW7       29.86R
EL CENTRO NAS  MOCLDY    75  48  38 W8        29.82F
IMPERIAL       MOCLDY    77  48  35 CALM      29.81S
BLYTHE         CLEAR     80  45  28 S8        29.83S
NEEDLES        MOCLDY    86  33  15 SW13      29.83S
$$

NVZ020-UTZ003-270800-
SOUTHERN NEVADA-UTAH

CITY           SKY/WX    TMP DP  RH WIND       PRES   REMARKS
LAS VEGAS      CLOUDY    79  33  19 S12       29.83S
SALT LAKE CITY MOCLDY    56  49  77 SE9       30.06F
$$

NMZ009-TXZ055-270800-
NEW MEXICO-WEST TEXAS

CITY           SKY/WX    TMP DP  RH WIND       PRES   REMARKS
ALBUQUERQUE    MOCLDY    66  42  41 NW6       30.12R
EL PASO        PTCLDY    70  27  20 SE8       30.01R
$$


........................KEY........................
SKY/WX - SKY CONDITION/WEATHER
TMP    - TEMPERATURE IN FAHRENHEIT
DP     - DEW POINT IN FAHRENHEIT
RH     - RELATIVE HUMIDITY IN PERCENT
WIND   - DIRECTION AND SPEED IN MILES PER HOUR (MPH)
VRB    - VARIABLE WIND DIRECTION
PRES   - MEAN SEA LEVEL PRESSURE IN INCHES OF MERCURY
         F - FALLING PRESSURE   R - RISING PRESSURE
         S - STEADY PRESSURE
VSB    - VISIBILITY IN MILES
HX     - HEAT INDEX IN FAHRENHEIT
WCI    - WIND CHILL INDEX IN FAHRENHEIT
TC     - TEMPERATURE IN CELSIUS WHICH IS ALSO KNOWN AS
         TEMPERATURE IN CENTIGRADE
AFB    - AIR FORCE BASE
         LUKE AFB IS LUKE AIR FORCE BASE
         DAVIS-MONTHAN IS DAVIS-MONTHAN AIR FORCE BASE
NAS    - NAVAL AIR STATION
         EL CENTRO NAS IS EL CENTRO NAVAL AIR STATION
N/A    - NOT AVAILABLE




USA.gov is the U.S. government's official web portal to all federal, state and local government web resources and services.